Tracking 28052 objects as of 23-Sep-2023
HD Live streaming from Space Station
objects crossing your sky now

STARLINK-4501

Track STARLINK-4501 now!
10-day predictions
STARLINK-4501 is classified as:


NORAD ID: 53553
Int'l Code: 2022-101AC
Perigee: 545.8 km
Apogee: 548.0 km
Inclination: 53.2 °
Period: 95.4 minutes
Semi major axis: 6917 km
RCS: Unknown
Launch date: August 19, 2022
Source: United States (US)
Launch site: AIR FORCE EASTERN TEST RANGE (AFETR)
Your satellite tracking list
Your tracking list is empty




NASA's NSSDC Master Catalog

Two Line Element Set (TLE):
1 53553U 22101AC  23265.64876943  .00007894  00000-0  51354-3 0  9991
2 53553  53.2162 139.9495 0001644  87.3501 272.7679 15.08836521 60589
Source of the keplerian elements: AFSPC